Regional Weather Roundup
Issued by NWS Sioux Falls, SD

Home | Current Version | Previous Version | Text Only | Print | Product List | Glossary Off
Versions: 1 2 3 4 5 6 7 8 9 10 11 12 13 14 15 16 17 18 19 20 21 22 23 24 25 26 27 28 29 30 31 32 33 34 35 36 37 38 39 40 41 42 43 44 45 46 47 48 49 50

000
ASUS43 KFSD 251602
RWRFSD

WEATHER ROUNDUP FOR SE SOUTH DAKOTA/SW MINNESOTA/NW IOWA
NATIONAL WEATHER SERVICE SIOUX FALLS SD
1100 AM CDT THU AUG 25 2016

NOTE: "FAIR" INDICATES FEW OR NO CLOUDS BELOW 12,000 FEET WITH NO
SIGNIFICANT WEATHER AND OR OBSTRUCTIONS TO VISIBILITY.


SDZ038>040-050-052>070-251700-
SOUTHEAST SOUTH DAKOTA

CITY           SKY/WX    TMP DP  RH WIND       PRES   REMARKS
BROOKINGS      MOSUNNY   61  51  70 NW8       30.15R
CHAMBERLAIN    SUNNY     67  51  56 NW12      30.22R
HURON          CLOUDY    65  50  58 NW13      30.17R
MADISON        FAIR      59  55  88 NW13      30.17R
MITCHELL       CLOUDY    64  53  67 NW8       30.20R
SIOUX FALLS    CLOUDY    65  54  67 NW13      30.16R
WINNER         FAIR      65  49  56 NW9       30.23F
YANKTON        CLOUDY    63  50  63 NW12      30.18R
$$

MNZ071-072-080-081-089-090-097-098-251700-
SOUTHWEST MINNESOTA

CITY           SKY/WX    TMP DP  RH WIND       PRES   REMARKS
FAIRMONT       CLOUDY    67  55  65 NW9       30.13R
JACKSON        CLOUDY    66  52  59 NW7       30.14R
LUVERNE        PTSUNNY   61  52  72 NW6       30.16R
MARSHALL       PTSUNNY   63  54  72 NW9       30.13R
MONTEVIDEO     MOSUNNY   64  55  72 NW9G17    30.12R
REDWOOD FALLS  CLOUDY    64  54  69 W13       30.10R
TRACY          CLOUDY    65  55  69 W9        30.13R
WINDOM         CLOUDY    66  54  63 W9        30.13R
WORTHINGTON    CLOUDY    65  54  67 W6        30.15R
$$

IAZ001>003-012>014-020>022-031-032-NEZ013-014-SDZ071-251700-
NORTHWEST IOWA

CITY           SKY/WX    TMP DP  RH WIND       PRES   REMARKS
CHEROKEE       CLOUDY    65  60  82 N5        30.15R
DENISON        CLOUDY    66  63  88 CALM      30.13R
ESTHERVILLE    CLOUDY    66  58  75 NW5       30.14R
LE MARS        CLOUDY    64  57  77 N6        30.17R
ORANGE CITY    CLOUDY    63  57  82 NW6       30.16R
SHELDON        CLOUDY    64  57  77 NW8       30.14R
SIOUX CITY     CLOUDY    65  58  78 NW6       30.16R
SPENCER        CLOUDY    68  55  63 N3        30.15R
STORM LAKE     CLOUDY    68  61  77 W3        30.16R
$$

ABBREVIATIONS USED IN REMARKS
   TC - TEMPERATURE IN CELSIUS
  WCI - WIND CHILL INDEX
   HX - HEAT INDEX
  VSB - VISIBILITY





USA.gov is the U.S. government's official web portal to all federal, state and local government web resources and services.